Location: Antichan
(42.9728°N, 0.6667°E)
Time: 12:28:24
(UTC+00:00)

Cosmos 2322 Rocket - Pass Details

Date: 15 August 2020
Orbit: 831 x 852 km, 71.0° (Epoch: 24 September)

Event Time Altitude Azimuth Distance (km) Brightness Sun altitude
Rises 20:11:51 0° 342° (NNW) 3,420 6.2 -12.8°
Reaches altitude 10° 20:14:35 10° 352° (N) 2,484 5.2 -13.2°
Maximum altitude 20:19:40 32° 55° (NE) 1,425 3.2 -14.0°
Enters shadow 20:22:51 19° 105° (ESE) 1,914 3.5 -14.4°
